[[{"header":{"parameterUnit":"m.s-1","parameterCategory":1,"la1":30.2991,"la2":30.254,"lo1":-89.0895,"lo2":-89.0444,"dy":0.0017,"dx":0.0017,"nx":28,"ny":28,"refTime":"2025-11-16T09:00:00:Z","depth":0,"parameterNumber":2,"parameterNumberName":"U-component_of_WINDS"},"data":[0,0,0,0,0,0,0,0,0,0,0,0,0,0,0,0,0,0,0,0,0,0,0,0,0,0,0,0,0,0,0,0,0,0,0,0,0,0,0,0,0,0,0,0,0,0,0,0,0,0,0,0,0,0,0,0,0,0,1.6637,1.6638,0,1.6748,1.6749,1.6751,1.6731,1.6729,1.6727,1.6725,1.6844,1.6848,1.6853,0,0,0,0,0,0,0,0,0,0,0,0,0,1.641,1.6414,1.6636,1.6638,1.6639,1.6748,1.6749,1.6751,1.6732,1.6729,1.6727,1.6725,1.6842,1.6848,1.6854,0,0,0,0,0,0,0,0,0,0,0,0,0,1.6514,1.6415,1.6636,1.6643,1.6644,1.6748,1.6749,1.6751,1.6732,1.6729,1.6726,1.6723,1.684,1.6847,1.6855,1.696,0,0,1.6877,1.6881,0,0,0,0,0,0,0,0,1.6508,1.6522,1.664,1.6642,1.6644,1.6723,1.6713,1.6821,1.6733,1.6699,1.6725,1.6722,1.6806,1.6816,1.6844,1.6965,1.697,1.6878,1.6883,1.6886,1.6888,0,0,0,0,0,0,0,1.6501,1.6517,1.6681,1.6642,1.6645,1.6641,1.6652,1.6733,1.6768,1.6702,1.67,1.6714,1.6807,1.6836,1.6846,1.6972,1.6878,1.6884,1.6889,1.6892,1.7185,1.7188,0,0,0,0,0,0,1.6491,1.6511,1.6677,1.6684,1.6567,1.6647,1.666,1.6701,1.6767,1.6774,1.6716,1.6712,1.6825,1.6837,1.685,1.6977,1.6886,1.6893,1.6897,1.7181,1.7185,1.7189,0,0,0,0,0,0,1.6486,1.6506,1.6673,1.6597,1.6618,1.6654,1.67,1.6704,1.6734,1.6778,1.6784,1.674,1.6823,1.684,1.6932,1.6981,1.6896,1.6903,1.7178,1.7183,1.7187,1.7231,0,0,0,0,0,0,1.648,1.6504,1.6544,1.6598,1.6622,1.6752,1.6703,1.6709,1.6747,1.6743,1.6802,1.6809,1.6822,1.6921,1.694,1.6989,1.6909,1.7173,1.718,1.7186,1.7226,1.7237,1.7247,0,0,0,0,0,1.6472,1.6553,1.6546,1.6566,1.6672,1.6755,1.6769,1.6781,1.6751,1.6791,1.6819,1.6807,1.6972,1.6931,1.6951,1.7004,1.717,1.7178,1.7185,1.7221,1.7235,1.7247,0,0,0,0,0,0,1.6505,1.656,1.6553,1.6654,1.67,1.6751,1.6803,1.6796,1.6852,1.6846,1.6861,1.6874,1.6968,1.6995,1.6948,1.7109,1.7067,1.7079,1.7087,1.7101,1.7112,1.7103,1.6915,0,0,0,0,0,1.6524,1.6585,1.663,1.6715,1.6738,1.6767,1.6803,1.6809,1.6857,1.6876,1.6911,1.6959,1.7022,1.7063,1.7124,1.723,1.7242,1.7276,1.7287,1.7296,1.7306,1.7363,1.7379,1.7213,1.7213,1.7213,0,0,1.6564,1.6602,1.664,1.6723,1.6759,1.6822,1.6783,1.6852,1.69,1.6887,1.6976,1.7003,1.7058,1.7158,1.7203,1.7184,1.7354,1.7305,1.7311,1.7317,1.7372,1.7388,1.7402,1.7218,1.7218,1.7217,0,0,1.6669,1.6704,1.6778,1.6814,1.6868,1.6887,1.6904,1.6957,1.6974,1.7063,1.7055,1.7112,1.722,1.7259,1.7293,1.7412,1.7403,1.7432,1.7487,1.7543,1.7556,1.7568,1.761,1.7625,1.7442,1.7442,1.7442,0,1.6712,1.6807,1.6817,1.6887,1.6924,1.6914,1.6989,1.7024,1.7096,1.7122,1.7099,1.7233,1.727,1.7378,1.7407,1.7435,1.7456,1.7425,1.7553,1.7565,1.7576,1.7616,1.7632,1.7445,1.7445,1.7444,1.7444,0,1.6857,1.6923,1.6976,1.7044,1.7087,1.7159,1.7181,1.7224,1.7226,1.7246,1.7337,1.738,1.7448,1.7475,1.7478,1.7583,1.7569,1.755,1.7508,1.7595,1.7633,1.7648,1.7449,1.7448,1.7447,1.7447,0,0,1.6986,1.7058,1.7077,1.7108,1.7167,1.7218,1.729,1.7355,1.7391,1.7441,1.7502,1.7593,1.7575,1.7614,1.7621,1.767,1.7761,1.7645,1.7646,1.7664,1.7879,1.7893,1.791,1.7755,1.7758,1.7761,1.7874,0,1.7096,1.7222,1.7233,1.7346,1.7407,1.7398,1.7461,1.7504,1.7526,1.7581,1.7605,1.7669,1.7641,1.7664,1.7712,1.774,1.7804,1.7732,1.7813,1.7815,1.7798,1.793,1.7946,1.805,1.7889,1.7892,1.7894,0,1.7242,1.7294,1.7413,1.7462,1.7488,1.7544,1.7604,1.7657,1.7706,1.7719,1.7761,1.7762,1.7836,1.7792,1.7895,1.7845,1.7879,1.7898,1.7902,1.791,1.7859,1.7941,1.8084,1.81,1.7917,1.7915,1.7914,0,1.7323,1.7424,1.7507,1.7534,1.7594,1.7633,1.766,1.7706,1.7744,1.7798,1.7823,1.7885,1.7919,1.7967,1.7984,1.795,1.8087,1.8044,1.8099,1.8098,1.8128,1.8125,1.8277,1.8151,1.815,1.815,1.815,0,1.7444,1.7517,1.7544,1.7596,1.7677,1.769,1.777,1.7796,1.7836,1.7893,1.789,1.7944,1.7964,1.8021,1.8035,1.8118,1.8134,1.8146,1.8149,1.8146,1.8144,1.8168,1.8161,1.8154,1.8153,1.8153,1.8152,0,1.7549,1.757,1.7661,1.771,1.7724,1.7781,1.7824,1.7874,1.7894,1.7966,1.7983,1.8015,1.8082,1.8104,1.8186,1.8196,1.8292,1.8289,1.8275,1.8275,1.8329,1.8323,1.8501,1.8524,1.8383,1.8384,1.8385,0,1.7625,1.768,1.7735,1.7772,1.78,1.786,1.7898,1.7913,1.7954,1.8013,1.8056,1.8122,1.8175,1.8283,1.8314,1.8376,1.8374,1.8432,1.8384,1.8378,1.8374,1.837,1.8375,1.8441,1.8443,1.8444,1.8445,0,1.7757,1.7764,1.7819,1.7878,1.7924,1.7971,1.8017,1.8048,1.8069,1.8115,1.8182,1.8224,1.8306,1.8371,1.8434,1.8463,1.8458,1.846,1.8476,1.8473,1.8462,1.8467,1.8299,1.8456,1.8454,1.8454,1.8453,1.8453,1.7849,1.7897,1.7942,1.8004,1.804,1.8082,1.8131,1.8157,1.8213,1.828,1.8286,1.8358,1.8406,1.849,1.8522,1.8579,1.8563,1.8586,1.8592,1.8597,1.8601,1.8453,1.8591,1.8591,1.859,1.859,1.859,0,1.7979,1.8008,1.8064,1.8127,1.8176,1.8165,1.8215,1.8257,1.832,1.8364,1.8416,1.8494,1.8557,1.8593,1.8656,1.8695,1.8694,1.8711,1.8708,1.8715,1.8612,1.8592,1.8711,1.8711,1.8711,1.8711,1.8711,1.8711,1.8053,1.8134,1.8147,1.8246,1.8274,1.8344,1.8373,1.8413,1.8448,1.8534,1.8586,1.8608,1.8649,1.8715,1.8773,1.8782,1.8805,1.8824,1.8831,1.8734,1.8722,1.871,1.8691,1.8829,1.8829,1.8928,1.8929,1.893]},{"header":{"parameterUnit":"m.s-1","parameterCategory":1,"la1":30.2991,"la2":30.254,"lo1":-89.0895,"lo2":-89.0444,"dy":0.0017,"dx":0.0017,"nx":28,"ny":28,"refTime":"2025-11-16T09:00:00:Z","depth":0,"parameterNumber":3,"parameterNumberName":"V-component_of_WINDS"},"data":[0,0,0,0,0,0,0,0,0,0,0,0,0,0,0,0,0,0,0,0,0,0,0,0,0,0,0,0,0,0,0,0,0,0,0,0,0,0,0,0,0,0,0,0,0,0,0,0,0,0,0,0,0,0,0,0,0,0,1.3242,1.3242,0,1.3176,1.3175,1.3174,1.3134,1.3133,1.3133,1.3133,1.306,1.3058,1.3056,0,0,0,0,0,0,0,0,0,0,0,0,0,1.3329,1.3328,1.3242,1.3242,1.3241,1.3176,1.3175,1.3174,1.3134,1.3133,1.3133,1.3133,1.306,1.3058,1.3056,0,0,0,0,0,0,0,0,0,0,0,0,0,1.328,1.3327,1.3243,1.3213,1.321,1.3176,1.3175,1.3174,1.3134,1.3133,1.3133,1.3133,1.3061,1.3059,1.3056,1.3045,0,0,1.3048,1.3047,0,0,0,0,0,0,0,0,1.3282,1.3276,1.3218,1.3215,1.3211,1.3163,1.3179,1.313,1.3134,1.3162,1.3133,1.3133,1.3094,1.3089,1.3077,1.3042,1.3039,1.3048,1.3046,1.3045,1.3044,0,0,0,0,0,0,0,1.3286,1.3279,1.3216,1.3217,1.3213,1.3201,1.3194,1.3169,1.313,1.316,1.3157,1.315,1.3092,1.3079,1.3075,1.3038,1.3048,1.3045,1.3044,1.3043,1.2988,1.2988,0,0,0,0,0,0,1.3295,1.3282,1.3218,1.3214,1.3247,1.32,1.3191,1.3178,1.3131,1.3123,1.315,1.3148,1.3084,1.3078,1.3072,1.3055,1.3045,1.3042,1.3041,1.2988,1.2988,1.2988,0,0,0,0,0,0,1.3297,1.3289,1.3221,1.3247,1.3238,1.3199,1.3184,1.3177,1.3165,1.3123,1.3116,1.3144,1.3083,1.3076,1.3052,1.3052,1.3041,1.3039,1.2988,1.2988,1.2988,1.3022,0,0,0,0,0,0,1.33,1.329,1.3288,1.3248,1.3236,1.3204,1.3184,1.3176,1.3161,1.3158,1.3116,1.3109,1.3083,1.3056,1.3049,1.3048,1.3037,1.2987,1.2988,1.2988,1.302,1.3023,1.3025,0,0,0,0,0,1.3303,1.3299,1.3288,1.328,1.3232,1.3204,1.3197,1.3169,1.3161,1.3156,1.313,1.311,1.3053,1.3054,1.3046,1.3044,1.2987,1.2988,1.2988,1.3019,1.3022,1.3025,0,0,0,0,0,0,1.3339,1.3293,1.328,1.3264,1.3238,1.3197,1.3191,1.3173,1.3148,1.3146,1.311,1.3101,1.308,1.3059,1.3062,1.303,1.3018,1.3016,1.3044,1.3047,1.3049,1.3054,1.3034,0,0,0,0,0,1.3345,1.3328,1.3288,1.3277,1.3265,1.3231,1.3217,1.3197,1.3169,1.3157,1.3129,1.31,1.3075,1.306,1.3035,1.3017,1.3006,1.3011,1.3014,1.3016,1.3015,1.3002,1.3003,1.2989,1.2989,1.2989,0,0,1.3357,1.333,1.3322,1.3284,1.3262,1.3243,1.3222,1.3203,1.3188,1.3154,1.313,1.3108,1.3073,1.3052,1.3041,1.3034,1.3016,1.3016,1.3018,1.3016,1.3002,1.3004,1.3005,1.2989,1.2989,1.2989,0,0,1.337,1.3349,1.3337,1.3315,1.3282,1.3259,1.3256,1.3217,1.3202,1.3178,1.3151,1.3131,1.3091,1.3067,1.3049,1.3051,1.3031,1.3044,1.3056,1.3044,1.3045,1.3046,1.3045,1.3045,1.3043,1.3043,1.3043,0,1.3389,1.3362,1.3333,1.3315,1.3298,1.3268,1.3254,1.3234,1.3194,1.3182,1.3175,1.3122,1.3097,1.3068,1.3069,1.3056,1.305,1.3048,1.3047,1.3048,1.3048,1.3047,1.3047,1.3045,1.3045,1.3044,1.3044,0,1.3386,1.3367,1.3361,1.3324,1.3307,1.3291,1.3258,1.3243,1.3224,1.3201,1.3175,1.3144,1.3111,1.3103,1.3084,1.3072,1.3068,1.3055,1.3042,1.3052,1.305,1.3049,1.3047,1.3046,1.3046,1.3046,0,0,1.342,1.3367,1.3365,1.3348,1.3309,1.3292,1.3274,1.3244,1.3231,1.3204,1.3187,1.3152,1.3139,1.3119,1.3097,1.3086,1.3088,1.3073,1.3072,1.3076,1.307,1.308,1.308,1.3075,1.3074,1.3074,1.3072,0,1.3426,1.3395,1.3367,1.3345,1.3326,1.3296,1.3279,1.3252,1.323,1.3208,1.3182,1.3158,1.3143,1.3131,1.3119,1.309,1.3086,1.309,1.3056,1.3055,1.3065,1.3079,1.309,1.309,1.3071,1.3071,1.3071,0,1.343,1.3405,1.3381,1.3343,1.3333,1.332,1.3289,1.327,1.3237,1.3221,1.3199,1.3175,1.3152,1.3142,1.3109,1.3112,1.3096,1.308,1.3079,1.3074,1.3064,1.3074,1.3089,1.3089,1.307,1.307,1.307,0,1.3456,1.3416,1.3397,1.3383,1.3337,1.3328,1.3309,1.3276,1.3259,1.3231,1.3219,1.3189,1.3172,1.3147,1.3115,1.3111,1.3085,1.3072,1.3069,1.307,1.3064,1.3065,1.3077,1.3056,1.3056,1.3056,1.3056,0,1.3465,1.3451,1.3408,1.3395,1.3378,1.3346,1.3329,1.3306,1.3278,1.3259,1.323,1.3213,1.3172,1.3149,1.3123,1.3098,1.3091,1.3076,1.3069,1.3078,1.308,1.3067,1.3066,1.3056,1.3056,1.3056,1.3056,0,1.3491,1.3462,1.3438,1.3397,1.3387,1.3376,1.334,1.3325,1.3301,1.3277,1.3269,1.323,1.3201,1.3167,1.3127,1.3109,1.3086,1.3077,1.3098,1.3094,1.3092,1.3093,1.3095,1.3093,1.3075,1.3075,1.3075,0,1.3499,1.3488,1.3446,1.3433,1.3414,1.3392,1.3375,1.3341,1.3324,1.3286,1.3275,1.3245,1.3218,1.3173,1.3139,1.3108,1.3096,1.3099,1.3091,1.31,1.3095,1.3096,1.3094,1.3102,1.3102,1.3102,1.3103,0,1.3516,1.3502,1.3479,1.345,1.3431,1.3406,1.338,1.337,1.3331,1.3312,1.3283,1.3263,1.3222,1.3191,1.3154,1.3131,1.311,1.3105,1.3103,1.3112,1.3124,1.3116,1.3103,1.3105,1.3105,1.3105,1.3105,1.3105,1.3532,1.352,1.3489,1.3464,1.3441,1.3417,1.3402,1.3375,1.3351,1.3316,1.3297,1.3268,1.3234,1.3183,1.3161,1.3136,1.3129,1.3125,1.3124,1.3124,1.3126,1.3129,1.3129,1.3129,1.3129,1.3129,1.3129,0,1.3547,1.3525,1.3502,1.3467,1.3447,1.343,1.34,1.3383,1.3359,1.333,1.3304,1.327,1.3239,1.3203,1.3169,1.3156,1.3145,1.3148,1.3148,1.3143,1.3135,1.314,1.3158,1.3158,1.3158,1.3158,1.3158,1.3158,1.3552,1.353,1.3512,1.3478,1.3456,1.3429,1.3413,1.339,1.3366,1.3329,1.3304,1.3282,1.3249,1.3212,1.3182,1.3172,1.3161,1.3167,1.3153,1.3146,1.3144,1.3142,1.3146,1.3165,1.3165,1.3164,1.3164,1.3164]}]]